Hourly Weather Bolshie Sehnovichi

Today, 17 June, Thursday

Time Temperature Precipitation Wind Pressure Humidity
00:00 +14°C° 0 mm 2 mps 752 mmHg 83%
01:00 +14°C° 0 mm 2 mps 752 mmHg 86%
02:00 +13°C° 0 mm 2 mps 752 mmHg 88%
03:00 +13°C° 0 mm 2 mps 752 mmHg 88%
04:00 +13°C° 0 mm 2 mps 752 mmHg 89%
05:00 +13°C° 0 mm 2 mps 752 mmHg 89%
06:00 +15°C° 0 mm 2 mps 753 mmHg 82%
07:00 +17°C° 0 mm 3 mps 753 mmHg 75%
08:00 +19°C° 0 mm 3 mps 753 mmHg 68%
09:00 +21°C° 0 mm 3 mps 753 mmHg 64%
10:00 +22°C° 0 mm 3 mps 754 mmHg 60%
11:00 +25°C° 0 mm 3 mps 754 mmHg 56%
12:00 +25°C° 0 mm 3 mps 754 mmHg 54%
13:00 +26°C° 0 mm 3 mps 754 mmHg 51%
14:00 +26°C° 0 mm 3 mps 754 mmHg 49%
15:00 +26°C° 0 mm 3 mps 753 mmHg 50%
16:00 +26°C° 0 mm 3 mps 753 mmHg 51%
17:00 +26°C° 0 mm 3 mps 753 mmHg 52%
18:00 +25°C° 0 mm 3 mps 753 mmHg 59%
19:00 +24°C° 0 mm 2 mps 753 mmHg 67%
20:00 +21°C° 0 mm 2 mps 753 mmHg 74%
21:00 +20°C° 0 mm 2 mps 753 mmHg 77%
22:00 +19°C° 0 mm 2 mps 754 mmHg 80%
23:00 +18°C° 0 mm 2 mps 754 mmHg 83%

Tomorrow, 18 June, Friday

Time Temperature Precipitation Wind Pressure Humidity
00:00 +18°C° 0 mm 2 mps 754 mmHg 85%
01:00 +17°C° 0 mm 2 mps 754 mmHg 88%
02:00 +17°C° 0 mm 2 mps 754 mmHg 90%
03:00 +16°C° 0 mm 2 mps 754 mmHg 89%
04:00 +16°C° 0 mm 2 mps 754 mmHg 89%
05:00 +16°C° 0 mm 2 mps 754 mmHg 88%
06:00 +18°C° 0 mm 3 mps 754 mmHg 83%
07:00 +19°C° 0 mm 3 mps 754 mmHg 77%
08:00 +21°C° 0 mm 4 mps 754 mmHg 71%
09:00 +22°C° 0 mm 4 mps 754 mmHg 66%
10:00 +25°C° 0 mm 4 mps 754 mmHg 62%
11:00 +26°C° 0 mm 4 mps 754 mmHg 57%
12:00 +27°C° 0 mm 4 mps 754 mmHg 55%
13:00 +27°C° 0 mm 4 mps 753 mmHg 54%
14:00 +28°C° 0 mm 4 mps 753 mmHg 52%
15:00 +27°C° 0 mm 4 mps 753 mmHg 53%
16:00 +27°C° 0 mm 4 mps 753 mmHg 55%
17:00 +27°C° 0 mm 4 mps 753 mmHg 56%
18:00 +26°C° 0 mm 3 mps 753 mmHg 64%
19:00 +24°C° 0 mm 3 mps 753 mmHg 71%
20:00 +23°C° 0 mm 2 mps 752 mmHg 78%
21:00 +21°C° 0 mm 2 mps 753 mmHg 81%
22:00 +20°C° 0 mm 2 mps 753 mmHg 84%
23:00 +19°C° 0 mm 2 mps 753 mmHg 87%

Day after tomorrow, 19 June, Saturday

Time Temperature Precipitation Wind Pressure Humidity
00:00 +19°C° 0 mm 3 mps 753 mmHg 89%
01:00 +19°C° 0 mm 3 mps 753 mmHg 92%
02:00 +18°C° 0 mm 3 mps 753 mmHg 94%
03:00 +18°C° 0 mm 3 mps 753 mmHg 94%
04:00 +18°C° 0 mm 3 mps 753 mmHg 95%
05:00 +18°C° 0 mm 3 mps 753 mmHg 96%
06:00 +20°C° 0 mm 3 mps 753 mmHg 90%
07:00 +21°C° 0 mm 4 mps 753 mmHg 84%
08:00 +23°C° 0 mm 4 mps 753 mmHg 79%
09:00 +25°C° 0 mm 4 mps 753 mmHg 73%
10:00 +26°C° 0 mm 5 mps 753 mmHg 67%
11:00 +27°C° 0 mm 5 mps 753 mmHg 61%
12:00 +28°C° 0 mm 5 mps 752 mmHg 60%
13:00 +28°C° 0 mm 4 mps 752 mmHg 59%
14:00 +29°C° 0 mm 4 mps 752 mmHg 59%
15:00 +28°C° 0 mm 4 mps 752 mmHg 61%
16:00 +28°C° 0 mm 4 mps 751 mmHg 62%
17:00 +28°C° 0 mm 4 mps 751 mmHg 64%
18:00 +26°C° 0.2 mm 3 mps 751 mmHg 70%
19:00 +25°C° 0.2 mm 3 mps 751 mmHg 75%
20:00 +24°C° 0.2 mm 2 mps 751 mmHg 81%
21:00 +23°C° 0 mm 2 mps 751 mmHg 83%
22:00 +21°C° 0 mm 2 mps 751 mmHg 86%
23:00 +20°C° 0 mm 2 mps 751 mmHg 88%

20 June, Sunday

Time Temperature Precipitation Wind Pressure Humidity
00:00 +19°C° 0 mm 2 mps 751 mmHg 90%
01:00 +19°C° 0 mm 2 mps 751 mmHg 91%
02:00 +18°C° 0 mm 2 mps 751 mmHg 92%
03:00 +18°C° 0 mm 2 mps 751 mmHg 93%
04:00 +18°C° 0 mm 2 mps 751 mmHg 93%
05:00 +18°C° 0 mm 2 mps 751 mmHg 94%
06:00 +20°C° 0 mm 3 mps 751 mmHg 88%
07:00 +21°C° 0 mm 3 mps 751 mmHg 83%
08:00 +23°C° 0 mm 4 mps 751 mmHg 77%
09:00 +25°C° 0.1 mm 4 mps 751 mmHg 71%
10:00 +26°C° 0.1 mm 4 mps 750 mmHg 65%
11:00 +27°C° 0.1 mm 5 mps 750 mmHg 58%
12:00 +27°C° 0 mm 4 mps 750 mmHg 59%
13:00 +27°C° 0 mm 4 mps 750 mmHg 60%
14:00 +28°C° 0 mm 3 mps 749 mmHg 61%
15:00 +28°C° 0 mm 4 mps 749 mmHg 62%
16:00 +28°C° 0 mm 4 mps 749 mmHg 62%
17:00 +28°C° 0 mm 5 mps 748 mmHg 63%
18:00 +27°C° 0.2 mm 4 mps 748 mmHg 70%
19:00 +25°C° 0.2 mm 3 mps 748 mmHg 77%
20:00 +24°C° 0.2 mm 3 mps 748 mmHg 84%
21:00 +22°C° 0 mm 3 mps 748 mmHg 86%
22:00 +21°C° 0 mm 2 mps 748 mmHg 88%
23:00 +20°C° 0 mm 2 mps 748 mmHg 91%

21 June, Monday

Time Temperature Precipitation Wind Pressure Humidity
00:00 +20°C° 0 mm 2 mps 748 mmHg 92%
01:00 +19°C° 0 mm 3 mps 748 mmHg 93%
02:00 +19°C° 0 mm 3 mps 748 mmHg 94%
03:00 +19°C° 0 mm 3 mps 748 mmHg 94%
04:00 +18°C° 0 mm 3 mps 748 mmHg 94%
05:00 +18°C° 0 mm 3 mps 748 mmHg 94%
06:00 +19°C° 0 mm 3 mps 748 mmHg 88%
07:00 +21°C° 0 mm 4 mps 748 mmHg 83%
08:00 +22°C° 0 mm 5 mps 748 mmHg 77%
09:00 +25°C° 0 mm 5 mps 748 mmHg 71%
10:00 +26°C° 0 mm 5 mps 747 mmHg 65%
11:00 +27°C° 0 mm 6 mps 747 mmHg 58%
12:00 +28°C° 0 mm 6 mps 747 mmHg 57%
13:00 +29°C° 0 mm 6 mps 747 mmHg 55%
14:00 +29°C° 0 mm 5 mps 746 mmHg 53%
15:00 +28°C° 0 mm 5 mps 746 mmHg 59%
16:00 +27°C° 0 mm 4 mps 746 mmHg 64%
17:00 +26°C° 0 mm 3 mps 746 mmHg 70%
18:00 +26°C° 0 mm 3 mps 746 mmHg 73%
19:00 +25°C° 0 mm 3 mps 745 mmHg 75%
20:00 +25°C° 0 mm 2 mps 745 mmHg 78%
21:00 +24°C° 0 mm 2 mps 745 mmHg 81%
22:00 +23°C° 0 mm 2 mps 745 mmHg 83%
23:00 +21°C° 0 mm 2 mps 745 mmHg 86%

22 June, Tuesday

Time Temperature Precipitation Wind Pressure Humidity
00:00 +20°C° 0 mm 2 mps 745 mmHg 88%
01:00 +20°C° 0 mm 2 mps 745 mmHg 90%
02:00 +19°C° 0 mm 2 mps 745 mmHg 92%
03:00 +19°C° 0 mm 2 mps 745 mmHg 93%
04:00 +19°C° 0 mm 2 mps 745 mmHg 94%
05:00 +19°C° 0 mm 3 mps 745 mmHg 94%
06:00 +21°C° 0 mm 3 mps 745 mmHg 88%
07:00 +22°C° 0 mm 3 mps 745 mmHg 81%
08:00 +25°C° 0 mm 4 mps 745 mmHg 74%
09:00 +26°C° 0 mm 4 mps 745 mmHg 69%
10:00 +28°C° 0 mm 5 mps 745 mmHg 64%
11:00 +29°C° 0 mm 5 mps 745 mmHg 58%
12:00 +30°C° 0 mm 5 mps 745 mmHg 55%
13:00 +30°C° 0 mm 5 mps 745 mmHg 52%
14:00 +32°C° 0 mm 5 mps 745 mmHg 49%
15:00 +32°C° 0 mm 5 mps 745 mmHg 51%
16:00 +32°C° 0 mm 4 mps 745 mmHg 52%
17:00 +32°C° 0 mm 4 mps 745 mmHg 54%
18:00 +30°C° 0.1 mm 4 mps 745 mmHg 60%
19:00 +28°C° 0.1 mm 3 mps 745 mmHg 67%
20:00 +26°C° 0.1 mm 3 mps 745 mmHg 74%
21:00 +25°C° 0.4 mm 2 mps 745 mmHg 79%
22:00 +24°C° 0.4 mm 2 mps 745 mmHg 84%
23:00 +23°C° 0.4 mm 2 mps 746 mmHg 88%
Show more